Вернуться в каталог

COSMOS 252 DEB

АктивенLEO
NORAD 3557·DEBRIS·🇷🇺 Russia

Запущен Nov 1, 1968 с Baikonur Cosmodrome

Loading…

Ближайшие Пролёты (ближайшие 24 часа)

TLE

СвежийSource: Space-Track

Эпоха: Sep 14, 2026, 07:49 UTC

1 03557U 68097K   26257.32618385  .00000218  00000-0  12456-3 0  9990
2 03557  62.3194  29.0716 0811603 270.6585  80.1593 13.24423367766015

Отслеживайте COSMOS 252 DEB в реальном времени с AllMySat

Download on the App Store